{"data":{"norad_id":62882,"epoch":"2026-09-21T04:54:49.533408Z","epoch_age_seconds":107259,"freshness":"FRESH","line1":"1 62882U 25024D   26264.20473997  .00148424  00000+0  11387-2 0  9994","line2":"2 62882  43.0002  83.1735 0000627 333.9477  26.1359 15.70860784 94213","mean_motion":15.70860784,"eccentricity":6.27e-5,"inclination_deg":43.0002,"raan_deg":83.1735,"arg_perigee_deg":333.9477,"mean_anomaly_deg":26.1359,"bstar":0.0011387,"rev_number":9421,"period_min":91.669485588228,"perigee_km":356.01339995612,"apogee_km":356.85791536739,"semimajor_km":6734.5726576618,"source":"CELESTRAK","updated_at":"2026-09-22T09:00:49.702268Z"}}